Location: Ab? ar R?sh Ba?r?
(24.1861°N, 32.8847°E)
Time: 20:47:39
(UTC+00:00)

H-2A R/B - Pass Details

Date: 02 June 2022
Orbit: 576 x 652 km, 98.5° (Epoch: 03 July)

Event Time Altitude Azimuth Distance (km) Brightness Sun altitude
Rises 17:45:44 0° 12° (NNE) 2,804 5.7 -15.3°
Reaches altitude 10° 17:47:53 10° 12° (NNE) 1,910 4.8 -15.7°
Maximum altitude 17:52:01 88° 287° (WNW) 599 1.9 -16.5°
Drops below altitude 10° 17:56:14 10° 194° (SSW) 1,942 4.4 -17.3°
Enters shadow 17:57:37 - 194° (SSW) 2,521 5.0 -17.6°
